CAPE
8 0 1 90 14 0 0 20 40 1 38 42 20 105 140 112 1 0 118 501 777 1088 1410 1617 1726 1810 1940 1955 1866 1911 1799 1830 1751 1763 1648 1500 1698 1678 1635 1575 1320 1269 1261 1279 1329 1276 1404 1259 1345
0 0 70 4 17 0 8 30 45 16 52 10 85 118 129 124 328 204 310 894 1098 1368 1525 1714 1755 1998 2012 1953 1983 1830 1868 1801 1778 1803 1630 1753 1787 1740 1679 1795 1466 1432 1491 1397 1432 1363 1264 1323 1314
0 127 17 4 28 11 24 26 33 29 23 63 139 205 318 273 434 355 642 1139 1277 1465 1640 1899 1848 1671 1848 2056 2014 2013 1899 2034 1850 1901 1848 1852 1864 1775 1351 1558 1801 1945 1490 1341 1665 1461 1295 1330 1445
10 61 42 20 26 39 78 34 48 46 22 63 58 74 254 460 505 569 916 1144 1228 1409 1616 2131 2289 2077 2009 2075 2111 1998 1834 1973 1942 1715 1966 1896 1970 1997 1749 1884 1711 1916 1527 1474 1676 1415 1275 1366 1280
0 53 3 0 8 15 22 21 57 60 67 85 55 73 232 399 537 632 883 1065 1091 1333 1792 2174 2156 2141 2038 2106 2073 2110 1502 1551 1989 1946 1889 1909 1733 1756 1885 2031 1821 1420 1285 1229 1439 1499 1497 1526 1654
66 99 1 8 25 28 23 17 60 105 107 113 88 94 242 411 347 708 850 1039 1235 1421 1941 2102 1934 2260 2037 2104 1788 2058 2129 1999 1979 1957 1907 1867 2096 2180 1937 1553 1344 1247 1085 1046 1210 1233 1055 1030 1643
52 26 4 3 19 52 30 103 53 75 69 83 97 56 258 336 558 746 616 762 926 1337 1399 1487 1755 1902 2168 2141 1833 2028 2175 2052 2250 2231 2323 2149 2047 1975 1822 1722 1464 1109 939 836 926 794 599 510 1193
153 42 0 0 29 22 62 26 80 41 63 156 137 53 110 236 301 364 535 696 837 819 759 908 1398 1759 1858 1950 1971 2061 2332 2221 2248 2093 2194 2218 2156 2035 1976 1946 1768 1613 1135 808 869 837 838 875 953
96 51 0 1 15 30 49 25 41 8 98 69 106 122 148 168 95 120 148 155 411 866 1276 1060 1069 1539 1773 1839 2058 1836 2318 2233 2220 2064 1865 1998 1809 1719 1479 1842 1906 1673 1417 1063 717 502 452 580 492
6 14 0 1 10 2 72 93 1 35 55 101 95 183 119 104 112 141 220 228 211 594 997 1081 828 1366 1688 1825 1816 1886 2142 2058 1640 1446 1287 1364 1252 1169 1505 1644 1648 1730 1526 1003 749 858 685 1348 1162
28 16 4 1 0 39 65 12 0 19 23 44 75 116 92 52 183 310 339 362 266 188 769 802 890 1178 1518 1629 1497 1598 1714 1652 1209 1154 1193 1249 1068 1036 985 472 803 877 1042 1023 1067 1227 1285 1170 906
0 269 98 143 0 2 84 57 3 1 29 42 130 132 92 100 195 237 242 426 472 384 576 836 856 1043 1192 1227 1262 1087 1068 1214 1185 1333 1354 873 673 629 449 154 833 841 913 1071 1056 1034 1123 1169 1110
19 227 185 172 19 21 63 24 37 19 38 117 159 156 119 128 107 150 254 394 448 434 661 753 752 663 713 710 943 1029 1157 1241 1271 1204 1067 977 726 470 512 576 199 134 633 719 897 665 814 730 222
251 211 110 94 77 122 93 88 79 8 65 118 137 165 140 109 71 94 260 333 360 419 490 627 675 483 446 719 825 923 912 1009 1127 1087 873 749 93 586 561 476 194 376 733 1130 577 594 491 445 143
218 83 131 71 51 75 85 76 31 69 59 86 116 145 161 122 83 83 224 273 290 352 453 470 508 606 577 540 670 744 812 788 767 787 693 827 1016 208 371 329 609 1259 1325 1389 671 467 495 521 430
199 90 25 42 77 22 5 0 39 97 57 74 66 100 70 160 146 96 191 205 229 298 450 456 526 567 552 571 627 562 652 581 228 672 875 880 580 88 244 745 920 1051 1063 1262 1079 906 655 477 474
51 9 42 61 40 9 1 0 49 49 49 60 55 26 35 81 137 134 161 144 224 288 421 503 521 485 294 339 618 536 527 242 324 834 750 797 858 478 638 672 929 563 1366 1530 1387 779 601 391 479
0 15 14 9 40 24 24 40 22 50 100 17 39 55 39 68 45 113 93 72 196 251 408 447 446 331 416 528 368 463 379 5 299 831 749 637 654 368 491 782 223 433 1154 1437 1709 1753 312 301 462
0 0 4 26 37 17 30 42 38 47 61 23 4 38 52 59 34 85 105 55 183 183 262 384 328 215 391 372 382 319 345 207 439 777 870 184 343 245 349 460 39 839 1097 1616 1804 1491 376 387 325
0 0 16 46 29 44 31 29 31 31 25 6 2 17 25 38 49 84 85 99 100 87 196 249 192 175 336 224 442 323 360 380 492 747 847 854 88 545 1031 619 50 810 929 1498 1707 1458 892 1199 721
0 1 29 45 9 6 49 6 31 16 18 26 5 13 28 39 43 56 78 91 68 74 155 187 59 151 255 280 399 418 464 456 557 598 843 875 629 922 1230 1177 855 587 754 1338 1628 1831 1608 871 109
0 45 30 0 0 0 36 0 0 13 21 21 8 0 1 57 59 46 78 101 84 93 214 180 43 148 217 197 237 294 348 312 452 569 616 659 802 730 1039 1077 760 388 373 1109 1572 1658 1645 1424 530
1 176 35 43 6 32 12 3 3 25 19 13 3 0 0 28 34 43 63 88 109 128 185 209 76 139 142 156 165 196 204 149 290 472 462 575 604 794 1064 1055 796 260 477 1199 1333 1443 1488 1082 1033
269 174 150 65 24 0 4 19 0 0 3 7 0 0 0 0 33 65 82 79 128 169 186 180 107 119 88 50 90 122 146 141 216 337 464 274 495 547 820 702 814 685 744 939 1264 1110 1401 1293 780
14 1 0 0 1 2 18 8 9 1 0 0 3 0 0 0 29 63 74 92 125 168 213 194 177 168 110 0 48 139 163 150 154 255 331 400 377 477 526 782 736 780 748 1029 1151 1082 1213 1202 1263
6 0 0 0 3 3 8 3 7 0 0 1 5 4 13 8 9 55 78 85 101 146 199 192 197 171 128 68 0 116 154 155 220 245 177 358 396 420 398 421 708 780 789 717 1150 1021 1102 1020 1150
42 66 36 69 63 21 3 2 0 7 1 31 9 7 7 2 16 42 86 92 109 122 178 176 150 169 148 137 153 87 172 180 272 321 245 265 347 455 445 430 587 676 786 708 786 939 862 945 1104
13 4 18 39 33 19 11 0 0 10 79 91 71 0 0 6 8 46 80 129 144 108 126 248 163 156 162 111 220 206 192 244 261 240 279 368 467 534 598 553 554 704 811 832 879 929 937 868 993
0 0 0 0 0 1 7 0 0 2 7 81 72 1 0 0 3 15 56 138 183 187 234 276 286 225 172 211 218 243 156 261 345 224 222 274 422 508 578 583 547 631 753 803 902 822 827 906 791
0 0 0 0 0 1 16 0 158 79 141 119 41 0 0 0 7 34 32 100 165 285 366 352 366 339 250 229 340 267 254 348 388 512 509 498 670 651 674 730 693 647 693 782 728 625 894 586 525
CIN
-159 0 -18 -213 -85 -8 0 -33 -51 -20 -71 -74 -105 -71 -85 -126 -22 0 -158 -73 -35 -24 -3 0 -1 0 0 0 0 0 -1 0 0 0 0 0 0 0 0 0 -1 -1 -2 0 0 0 0 0 -1
0 0 -236 -242 -46 0 -21 -69 -42 -76 -96 -120 -88 -72 -92 -134 -158 -179 -120 -21 -23 -13 -2 -1 -1 0 0 0 0 0 0 0 0 0 0 0 0 0 0 0 0 0 0 0 0 -2 -6 -9 -8
0 -154 -100 -39 -53 -11 -28 -56 -75 -106 -112 -95 -118 -96 -115 -135 -106 -140 -85 -11 -9 -6 -2 0 0 -2 -1 0 0 0 0 0 0 0 0 0 0 0 0 0 0 -1 0 0 0 -5 -1 -2 -7
-128 -69 -113 -46 -16 -26 -33 -64 -94 -133 -120 -105 -131 -112 -98 -76 -80 -89 -38 -19 -27 -13 -4 0 0 -2 0 0 0 0 0 0 0 0 0 0 0 0 0 0 0 0 0 -3 0 -6 -5 -2 -5
0 -46 -50 0 -34 -34 -59 -82 -82 -105 -96 -93 -110 -101 -71 -31 -70 -70 -39 -37 -56 -25 -2 0 -1 -2 -1 -1 0 0 0 0 0 0 0 0 0 0 0 0 0 0 -2 -15 -10 -5 -5 -10 -5
-57 -77 -51 -22 -27 -33 -49 -65 -81 -117 -135 -117 -105 -109 -32 -58 -96 -43 -58 -48 -42 -34 -1 -1 -2 -1 -1 -1 -2 0 0 0 -1 0 0 0 0 0 0 -3 -6 -6 -20 -25 -18 -13 -22 -26 -11
-99 -65 -27 -49 -22 -4 -30 -40 -71 -122 -135 -114 -101 -129 -26 -44 -69 -49 -84 -75 -61 -32 -26 -15 0 0 0 0 -2 -1 0 0 -1 -1 0 0 0 0 0 0 -4 -21 -29 -31 -28 -27 -37 -43 -15
-23 -55 0 0 -9 -22 -14 -34 -75 -110 -119 -82 -89 -131 -81 -36 -89 -78 -61 -51 -45 -54 -72 -57 -10 -2 -1 -1 0 0 0 0 0 0 0 0 0 -1 -2 -2 -1 -10 -36 -45 -38 -38 -50 -50 -46
-43 -21 0 -25 -43 -17 -27 -55 -65 -40 -100 -78 -59 -117 -78 -94 -100 -100 -115 -112 -66 -27 -16 -37 -29 -3 -2 -1 0 -4 0 0 -2 -7 -12 -14 -23 -29 -44 -25 -16 -26 -32 -41 -40 -52 -53 -57 -61
-92 -41 0 -49 -64 -6 -36 -42 -50 -74 -81 -93 -84 -65 -98 -108 -97 -103 -101 -107 -114 -59 -27 -27 -56 -12 -3 -1 -4 -4 -2 -5 -33 -29 -43 -46 -58 -55 -44 -35 -27 -29 -34 -38 -41 -35 -34 -31 -55
-57 -54 -28 -31 -14 -17 -10 -39 -13 -101 -95 -110 -107 -91 -84 -82 -54 -54 -65 -83 -100 -121 -51 -54 -53 -27 -7 -6 -17 -17 -17 -27 -39 -42 -48 -60 -73 -78 -69 -97 -72 -74 -56 -59 -61 -50 -54 -56 -76
0 -28 -40 -46 0 -55 -3 -29 -77 -29 -68 -73 -99 -101 -104 -89 -76 -66 -86 -71 -69 -83 -63 -40 -49 -33 -22 -27 -33 -52 -53 -43 -39 -43 -46 -72 -81 -81 -91 -108 -103 -114 -116 -92 -83 -72 -69 -68 -78
-103 -34 -60 -72 -67 -67 -10 -41 -45 -66 -66 -52 -86 -76 -74 -78 -94 -83 -91 -77 -75 -81 -49 -47 -54 -58 -54 -54 -46 -47 -41 -39 -42 -50 -64 -66 -75 -83 -89 -106 -141 -162 -132 -97 -60 -76 -77 -74 -139
-27 -48 -74 -95 -54 -10 -7 -27 -10 -55 -61 -48 -66 -62 -61 -63 -94 -112 -93 -91 -77 -74 -71 -63 -56 -67 -60 -44 -43 -43 -50 -49 -53 -60 -60 -76 -135 -78 -91 -93 -108 -90 -120 -90 -68 -64 -93 -99 -153
-54 -44 -46 -88 -55 -20 -27 -9 -25 -54 -58 -48 -54 -47 -34 -40 -88 -105 -92 -95 -85 -77 -83 -74 -55 -57 -51 -45 -45 -52 -47 -67 -61 -68 -68 -65 -61 -121 -105 -98 -82 -63 -76 -69 -84 -85 -87 -122 -131
-33 -43 -30 -76 -42 -55 -28 0 -17 -18 -42 -37 -40 -39 -47 -52 -72 -93 -90 -98 -83 -75 -61 -54 -42 -44 -39 -53 -52 -56 -56 -55 -101 -64 -58 -55 -86 -139 -130 -75 -71 -79 -75 -63 -51 -58 -71 -108 -120
-100 -68 -42 -36 -40 -32 -24 0 -12 -22 -26 -35 -33 -60 -59 -76 -57 -80 -100 -114 -89 -74 -52 -38 -32 -49 -72 -74 -57 -52 -57 -83 -93 -67 -64 -67 -66 -118 -81 -55 -82 -113 -68 -64 -59 -84 -83 -106 -107
0 -85 -66 -33 -31 -22 -18 -14 -11 -24 -10 -29 -24 -48 -68 -84 -85 -93 -109 -124 -97 -79 -57 -27 -33 -41 -51 -55 -72 -64 -73 -32 -78 -59 -57 -70 -64 -90 -66 -73 -139 -125 -66 -51 -61 -59 -162 -152 -132
0 0 -28 -33 -34 -27 -14 -29 -52 -29 -32 -18 -45 -45 -80 -78 -87 -86 -117 -121 -101 -92 -67 -41 -44 -58 -33 -59 -44 -46 -49 -64 -43 -42 -49 -99 -82 -88 -90 -90 -89 -86 -53 -50 -59 -93 -131 -156 -225
0 0 -7 -30 -29 -12 -27 -7 -40 -48 -37 -49 -31 -36 -50 -75 -71 -92 -110 -115 -105 -112 -82 -86 -66 -64 -36 -44 -61 -60 -50 -50 -47 -43 -43 -41 -90 -53 -41 -68 -69 -77 -59 -42 -52 -55 -87 -112 -225
0 -3 -23 -29 -29 -26 -34 -31 -16 -45 -64 -52 -57 -40 -61 -69 -98 -112 -131 -120 -115 -115 -104 -78 -106 -64 -54 -56 -77 -69 -73 -59 -42 -47 -36 -40 -49 -41 -38 -48 -69 -73 -85 -53 -56 -53 -53 -98 -294
0 -37 -57 0 0 -1 -23 -7 0 -31 -33 -39 -44 0 -7 -99 -117 -131 -137 -139 -119 -103 -86 -75 -117 -77 -75 -71 -58 -42 -29 -27 -38 -37 -42 -37 -39 -44 -32 -49 -68 -74 -97 -62 -51 -58 -64 -79 -116
-6 -69 -78 -48 -46 -19 -9 -8 -52 -38 -13 -29 -38 0 0 -121 -117 -133 -143 -141 -132 -113 -96 -77 -103 -86 -98 -88 -71 -60 -45 -44 -50 -38 -33 -30 -38 -40 -30 -37 -45 -87 -75 -53 -46 -50 -56 -86 -92
-127 -93 -53 -49 -59 0 -42 -14 -7 -6 -29 -38 0 0 0 0 -108 -142 -149 -151 -127 -127 -99 -90 -102 -106 -123 -149 -113 -59 -50 -56 -44 -35 -32 -46 -36 -38 -35 -43 -43 -55 -52 -49 -39 -51 -49 -72 -113
-177 -53 0 0 0 -3 -25 -11 -42 -32 0 0 -29 0 0 0 -111 -127 -138 -138 -136 -129 -115 -109 -103 -101 -142 0 -160 -112 -63 -55 -50 -42 -36 -33 -36 -37 -38 -37 -38 -40 -48 -42 -49 -52 -46 -62 -62
-14 0 0 0 -18 -1 -27 -5 -19 -2 -26 -7 -32 -77 -81 -142 -119 -119 -137 -140 -157 -133 -128 -119 -124 -106 -131 -153 0 -145 -98 -83 -65 -55 -54 -37 -34 -33 -31 -42 -40 -38 -49 -51 -42 -46 -44 -58 -62
-53 -25 -61 -50 -93 -18 -38 -49 0 -83 -7 -70 -89 -93 -56 -108 -151 -142 -132 -139 -166 -141 -135 -136 -122 -117 -130 -123 -112 -161 -127 -82 -55 -63 -66 -49 -43 -31 -37 -39 -32 -36 -38 -55 -56 -38 -38 -50 -59
-16 -42 -24 -63 -27 -17 -61 0 0 -39 -98 -87 -167 0 0 -155 -154 -147 -126 -132 -159 -154 -153 -140 -140 -131 -133 -129 -101 -97 -119 -95 -78 -81 -67 -55 -44 -46 -39 -41 -39 -32 -31 -35 -42 -42 -39 -38 -45
0 0 0 0 -17 -4 -20 0 0 -60 -113 -105 -154 -101 0 0 -160 -184 -139 -130 -141 -150 -139 -130 -139 -136 -132 -134 -117 -97 -110 -101 -89 -107 -86 -63 -44 -38 -51 -41 -44 -36 -26 -32 -37 -48 -36 -28 -28
0 0 0 0 0 -10 -27 0 -192 -269 -256 -217 -223 0 0 -23 -189 -183 -169 -138 -157 -135 -128 -118 -135 -132 -127 -121 -104 -103 -78 -80 -79 -60 -46 -48 -35 -41 -36 -49 -42 -36 -29 -28 -31 -31 -20 -43 -42
Wind_Speed
16 15 15 16 17 19 22 22 24 26 27 25 30 23 23 23 21 21 30 29 28 31 31 30 30 30 30 30 31 31 31 31 31 31 31 32 31 30 28 6 7 7 3 3 3 2 3 1 3
15 14 15 13 6 23 22 20 22 26 26 27 24 23 22 20 21 29 30 30 29 31 31 30 30 30 30 30 31 31 31 31 31 31 31 30 30 29 16 8 12 13 1 4 2 1 2 2 5
14 16 13 16 21 23 23 25 23 26 25 25 22 22 20 21 27 31 30 30 29 31 30 30 30 29 30 30 30 30 30 30 30 30 30 29 29 27 24 12 4 7 13 10 2 3 1 3 2
17 16 17 18 9 12 23 25 21 22 21 21 23 22 24 26 26 29 31 28 28 30 29 29 28 28 29 29 29 29 29 28 29 29 29 28 21 18 16 16 16 13 10 15 9 3 6 8 7
18 20 19 16 14 18 24 21 23 20 20 22 23 23 25 25 24 31 30 28 29 30 29 28 27 26 27 28 28 29 30 31 29 28 25 21 8 15 11 17 16 17 13 13 10 8 8 7 11
16 15 16 16 20 3 18 24 18 17 19 22 23 25 25 29 29 31 29 28 29 28 27 26 26 26 25 27 28 28 29 28 23 25 27 27 8 11 10 14 13 16 17 16 15 14 12 9 7
13 15 13 16 8 6 13 21 20 20 21 23 27 27 29 28 30 31 29 27 28 27 27 27 27 27 26 26 27 27 27 25 7 22 28 24 20 20 15 14 12 16 15 15 15 14 13 11 10
17 16 11 10 9 23 23 23 20 20 19 23 29 25 29 29 29 28 26 26 27 27 27 27 27 26 27 27 26 27 26 27 12 26 26 25 24 18 13 11 10 9 9 13 15 14 12 10 9
15 15 17 20 25 22 23 22 12 17 22 24 19 30 32 30 29 26 26 27 27 27 27 27 28 28 28 27 26 25 26 27 27 24 21 17 19 21 20 13 8 9 11 13 15 14 13 10 10
12 13 14 18 17 23 24 24 12 20 21 19 22 28 31 31 29 28 27 26 27 28 28 27 28 27 28 27 27 26 27 27 26 22 17 19 21 20 16 11 8 9 12 13 14 14 13 12 13
13 17 12 17 27 24 24 23 10 19 16 23 28 30 30 30 28 27 27 27 29 29 28 27 28 27 27 27 27 27 28 27 23 20 19 16 17 17 16 12 12 12 13 14 14 14 14 13 14
14 14 8 10 26 27 25 12 21 20 16 22 26 30 31 30 26 26 28 29 29 28 28 28 28 27 27 28 28 29 28 25 22 23 21 21 19 17 18 16 12 13 13 12 13 13 14 15 16
11 12 16 11 19 25 23 20 21 18 16 24 25 28 28 28 26 26 27 28 28 29 28 29 28 27 27 29 29 28 27 25 24 24 22 22 21 18 17 16 14 12 11 10 10 11 13 15 17
12 10 11 12 6 1 13 9 15 12 15 21 26 26 27 28 26 26 26 26 28 28 28 29 28 27 27 28 28 28 26 25 23 23 23 22 21 19 16 16 15 13 12 11 12 11 12 14 17
9 12 14 14 13 13 17 10 12 11 22 23 26 25 23 25 26 26 26 25 26 28 27 28 28 27 27 27 28 28 26 25 24 23 24 23 21 21 17 16 15 13 12 13 15 13 13 15 14
14 14 16 16 13 15 19 10 6 15 20 21 24 24 20 23 27 26 24 24 26 27 27 28 28 26 26 28 29 28 27 26 24 24 23 23 23 20 22 20 16 12 11 12 13 14 15 13 13
17 16 15 15 14 14 14 3 23 5 6 19 23 22 23 21 27 27 23 25 26 27 28 29 29 26 27 27 29 29 28 26 24 25 24 20 21 24 24 18 15 14 12 9 8 8 14 15 16
17 17 18 18 17 13 14 12 5 29 25 18 26 22 16 21 30 28 23 25 26 27 28 29 30 27 27 27 28 29 28 25 25 24 26 23 23 24 20 17 15 14 14 9 9 10 12 16 16
17 20 21 19 18 17 18 15 16 21 22 11 10 17 15 24 28 26 22 24 27 28 28 29 30 28 26 27 30 30 29 26 25 25 22 25 22 22 21 18 17 15 12 10 9 12 12 12 15
21 23 20 15 18 19 21 22 17 20 22 24 7 19 19 17 25 23 23 24 28 28 28 29 30 29 29 29 28 28 28 27 25 24 24 23 21 22 22 20 21 18 15 10 8 9 14 13 12
24 26 22 17 18 23 20 22 24 23 27 25 22 21 18 21 22 23 26 26 28 28 28 28 30 30 30 29 25 24 25 25 25 25 23 22 21 20 22 21 22 18 15 13 10 11 12 18 12
29 25 19 16 18 23 18 24 24 32 35 32 29 26 20 23 18 21 23 25 27 27 27 27 28 30 32 29 29 28 30 30 29 28 24 23 23 23 22 21 21 18 15 16 13 14 14 15 18
27 21 21 18 19 20 23 23 23 27 44 43 38 34 18 22 18 23 24 25 27 27 27 27 26 29 31 31 29 30 30 29 29 28 26 25 24 25 24 23 21 19 17 18 15 16 14 14 15
8 9 12 16 21 25 26 23 22 27 50 43 35 36 26 16 18 27 22 18 22 26 21 26 27 27 29 31 31 28 29 29 28 29 28 27 25 26 24 24 22 21 19 18 18 18 16 15 15
16 17 22 20 19 19 20 22 27 22 32 46 38 37 31 12 19 20 17 16 17 24 24 24 26 29 28 26 30 31 30 28 28 29 28 27 26 26 27 26 25 24 23 21 21 18 16 18 17
24 24 24 21 18 19 15 23 21 15 17 30 47 36 26 17 16 19 18 16 18 20 26 23 28 31 31 28 26 28 29 31 30 29 29 28 25 24 27 28 27 27 26 26 24 21 20 21 19
26 28 20 18 19 19 19 21 25 26 27 25 45 31 22 17 18 19 16 14 14 17 16 26 27 31 29 32 29 27 27 22 30 28 30 29 28 27 27 28 28 28 26 23 22 21 23 23 22
25 21 26 23 24 21 19 17 24 23 23 25 24 25 24 20 18 20 20 16 13 11 10 12 19 28 25 25 32 31 28 29 30 26 24 25 29 28 27 27 29 29 28 22 13 13 20 22 21
27 32 26 24 24 23 21 20 23 18 18 17 19 23 19 19 19 20 21 18 14 13 10 8 7 8 17 24 24 31 29 27 26 24 23 30 26 28 28 22 14 17 28 26 20 15 12 20 21
14 18 24 33 28 23 22 21 18 15 14 13 17 17 15 18 20 19 19 21 18 13 14 10 8 7 10 10 5 9 29 29 5 6 18 4 11 22 22 10 2 5 14 17 15 6 15 24 23
Wind_Direction
122 116 65 72 178 122 106 143 103 96 108 120 121 102 96 105 111 100 121 122 108 123 130 124 119 118 114 113 113 109 110 114 113 112 110 114 115 120 123 37 178 178 56 136 81 66 52 67 180
125 98 81 122 124 100 102 173 96 113 118 101 107 95 96 111 115 104 114 116 112 119 128 125 115 114 116 115 113 109 110 113 109 107 111 118 115 118 163 182 172 169 137 169 74 66 182 208 193
114 55 125 222 159 132 108 140 94 95 109 111 108 109 100 112 98 112 115 113 110 120 119 126 116 109 114 114 110 108 107 107 106 103 108 123 122 129 144 174 196 181 172 177 51 170 169 169 138
35 86 126 166 340 224 147 107 89 91 86 144 92 71 97 105 104 121 113 109 109 119 122 117 110 106 113 118 109 102 101 97 102 101 100 93 155 162 167 164 164 173 183 172 182 185 183 177 183
32 98 121 74 53 190 155 101 103 80 88 111 111 98 105 120 98 110 112 110 111 120 126 120 111 104 105 114 110 106 112 117 113 104 85 68 194 176 185 167 169 166 180 184 187 190 181 181 175
8 64 98 98 106 198 144 127 83 61 71 88 88 95 114 107 109 118 114 112 119 115 117 115 115 110 101 111 117 107 114 109 79 91 109 100 199 188 190 176 179 170 169 178 177 174 172 175 176
293 1 87 99 43 350 103 146 100 76 78 93 109 98 114 113 116 119 115 114 117 119 121 131 131 128 112 111 117 111 111 100 161 146 122 147 160 155 174 174 184 170 176 180 176 178 174 176 181
342 6 345 85 67 208 163 182 93 81 71 87 104 108 121 122 116 112 108 113 123 128 129 137 153 155 140 124 115 116 113 112 177 139 144 144 147 161 177 184 189 195 196 184 180 180 180 182 183
344 324 120 130 178 163 185 109 70 91 92 102 139 115 118 117 114 109 109 118 130 138 135 137 138 145 139 134 122 108 116 122 134 159 165 173 163 151 153 169 185 189 187 184 180 181 181 190 185
339 314 357 143 119 152 153 143 88 87 92 75 83 106 115 118 118 116 118 119 135 139 140 138 134 132 137 144 125 125 127 145 158 168 179 171 159 155 167 179 192 193 189 187 189 193 192 192 180
331 293 35 154 185 172 147 120 98 104 90 105 114 118 121 122 123 121 123 124 134 137 141 138 136 138 139 133 131 137 130 157 172 177 178 184 173 171 174 188 193 196 194 194 197 198 196 193 183
310 312 58 102 165 167 174 100 126 122 106 113 113 121 125 126 122 123 126 132 130 130 144 141 140 136 152 139 143 141 131 172 181 175 179 168 173 176 168 172 193 191 195 195 194 194 191 188 182
301 328 317 3 141 170 147 137 135 135 106 118 116 121 126 127 123 126 130 132 137 138 138 146 143 141 143 145 151 155 155 177 178 175 179 172 169 178 181 180 191 195 201 212 208 204 187 180 171
303 340 343 335 303 46 121 75 152 111 120 122 126 128 127 130 127 122 126 131 140 147 140 147 147 143 136 147 156 164 169 179 186 182 172 175 175 176 185 183 189 201 206 210 199 201 192 183 176
304 300 297 292 276 272 251 112 275 112 129 130 136 136 130 131 132 130 131 131 137 145 142 146 145 147 143 154 160 164 179 178 183 188 170 171 182 178 189 194 193 205 210 202 194 197 195 189 186
282 286 275 277 292 277 253 272 285 132 136 134 137 136 131 138 145 141 133 133 141 145 143 146 149 147 153 164 166 164 172 176 187 178 179 177 174 185 173 175 187 204 212 216 207 204 198 199 196
269 273 277 278 285 286 264 270 181 202 163 142 142 140 140 134 151 151 133 137 139 147 146 148 145 137 146 156 163 165 171 183 188 177 179 189 187 169 172 183 197 199 207 218 225 221 205 200 198
264 265 270 269 275 279 269 279 201 182 229 148 153 145 140 141 155 152 138 146 147 152 149 149 150 137 146 162 163 171 180 191 188 185 175 188 179 177 194 200 208 209 207 235 240 230 220 212 207
262 257 262 276 285 275 270 275 251 238 239 234 150 144 143 149 154 148 139 144 149 153 149 152 152 149 140 167 161 175 184 191 192 194 202 178 192 188 195 207 205 211 227 242 259 233 229 234 231
258 256 256 273 285 275 266 260 263 242 233 235 180 147 149 143 147 145 145 146 154 152 152 157 155 156 167 169 184 190 188 190 196 192 185 196 202 196 197 208 199 206 223 249 265 251 232 252 256
253 251 247 274 295 271 267 259 255 249 237 243 240 157 152 151 148 148 151 152 154 156 155 152 155 152 162 156 192 202 200 202 201 193 196 198 210 215 200 198 203 216 231 239 259 260 253 226 273
242 258 260 279 304 274 274 256 264 238 230 229 227 229 158 161 158 149 150 154 158 158 157 151 152 155 168 159 165 156 172 175 187 187 199 197 202 203 208 213 216 232 244 235 252 252 261 257 243
251 252 253 276 291 278 269 264 273 240 218 220 220 221 203 164 163 158 156 156 158 159 160 155 150 158 168 177 164 179 186 187 197 200 196 195 200 198 208 214 227 237 246 239 254 255 265 277 266
238 248 264 278 286 268 260 259 276 250 209 225 231 226 234 174 175 168 160 149 150 158 146 155 156 157 163 185 191 165 167 198 202 198 196 195 202 205 210 224 227 236 244 253 256 255 270 280 275
241 248 253 279 269 265 280 257 258 265 243 227 231 228 232 206 178 170 164 156 151 156 154 154 159 166 165 159 177 182 177 168 175 186 195 200 191 198 207 221 219 228 234 245 248 268 280 273 278
238 248 245 256 272 278 293 256 269 265 267 236 228 238 238 234 199 185 173 166 158 156 160 155 165 173 175 166 161 169 177 196 200 197 193 190 183 183 206 209 221 217 215 209 233 256 265 266 275
243 246 258 265 272 270 281 288 252 238 246 253 227 243 232 216 202 198 202 192 169 160 159 164 165 178 172 187 176 167 172 160 210 221 200 197 202 202 204 204 203 215 240 251 255 264 256 263 266
260 254 252 263 260 265 271 284 250 249 260 259 250 236 232 220 210 209 212 210 199 191 174 161 158 170 166 167 192 190 174 184 209 226 249 242 224 229 214 196 205 214 236 267 298 300 284 275 278
260 249 259 258 255 257 260 268 233 277 270 275 259 247 237 214 201 202 209 219 210 218 208 199 210 163 159 167 169 188 182 178 186 183 175 208 248 239 229 179 158 184 247 259 277 296 308 286 286
293 271 260 250 253 253 249 266 276 294 301 293 279 272 253 228 207 205 209 224 227 220 231 220 216 189 161 161 232 165 187 188 153 291 274 294 286 266 263 297 305 306 296 288 293 314 301 280 281